Location: Key Biscayne
(25.6930°N, 80.1630°W)
Time: 05:49:14
(UTC-04:00)

CZ-2D R/B - Visible Passes

Search period start: 01 August 2014 00:00
Search period end: 11 August 2014 00:00
Orbit: 537 x 555 km, 97.6° (Epoch: 31 July)

Date Brightness Start Highest point End Pass type
(mag) Time Alt. Az. Time Alt. Az. Time Alt. Az.
01 Aug 5.4 21:34:23 10° SSW 21:37:33 24° W 21:40:44 10° NW visible
02 Aug 5.1 21:28:36 10° SSW 21:31:58 29° W 21:35:22 10° NW visible
03 Aug 4.8 21:22:51 10° SSW 21:26:23 35° W 21:29:57 10° NNW visible
04 Aug 4.4 21:17:08 10° S 21:20:48 42° W 21:24:29 10° NNW visible
05 Aug 4.1 21:11:27 10° S 21:15:13 51° W 21:19:00 10° NNW visible
06 Aug 3.7 21:05:48 10° S 21:09:37 63° W 21:13:28 10° NNW visible
07 Aug 3.4 21:00:11 10° S 21:04:02 78° WSW 21:07:55 10° NNW visible
08 Aug 3.2 20:54:35 10° SSE 20:58:26 87° ENE 21:02:20 10° N visible
09 Aug 3.2 20:49:00 10° SSE 20:52:51 71° ENE 20:56:43 10° N visible
10 Aug 3.3 20:43:28 10° SSE 20:47:15 58° ENE 20:51:05 10° N visible
